| time (UTC) | temp F | wind direction | speed knots | gust knots | rain 1hr in | rain 24hr in | rain mn in | humidity % | barometer mb |
| 20260507235954 | 58 | 102 | 0.9 | 1.7 | 0.00 | 0.01 | 0.01 | 58 | 1008.9 |
| 20260507235451 | 58 | 102 | 0.9 | 0.9 | 0.00 | 0.01 | 0.01 | 57 | 1008.8 |
| 20260507234949 | 58 | 111 | 0.9 | 1.7 | 0.00 | 0.01 | 0.01 | 59 | 1008.7 |
| 20260507234445 | 58 | 86 | 0.9 | 0.9 | 0.00 | 0.01 | 0.01 | 60 | 1008.8 |
| 20260507233941 | 58 | 167 | 0.9 | 0.9 | 0.00 | 0.01 | 0.01 | 59 | 1008.7 |
| 20260507233438 | 57 | 110 | 0.9 | 2.6 | 0.00 | 0.01 | 0.01 | 64 | 1008.9 |
| 20260507232937 | 56 | 69 | 0.9 | 0.9 | 0.00 | 0.01 | 0.01 | 63 | 1009.0 |
| 20260507232433 | 56 | 327 | 0.9 | 1.7 | 0.00 | 0.01 | 0.01 | 62 | 1008.9 |
| 20260507231930 | 56 | 62 | 0.0 | 1.7 | 0.00 | 0.01 | 0.01 | 63 | 1009.0 |
| 20260507231426 | 57 | 98 | 0.9 | 1.7 | 0.00 | 0.01 | 0.01 | 61 | 1008.8 |
| 20260507230923 | 57 | 280 | 1.7 | 1.7 | 0.00 | 0.01 | 0.01 | 62 | 1009.0 |
| 20260507230421 | 57 | 97 | 0.0 | 0.9 | 0.00 | 0.01 | 0.01 | 62 | 1009.2 |
| 20260507225921 | 56 | 95 | 0.0 | 0.9 | 0.00 | 0.01 | 0.01 | 64 | 1009.3 |
| 20260507225417 | 56 | 138 | 0.9 | 0.9 | 0.00 | 0.01 | 0.01 | 67 | 1009.3 |
| 20260507224913 | 56 | 355 | 0.9 | 1.7 | 0.00 | 0.01 | 0.01 | 68 | 1009.6 |
| 20260507224409 | 56 | 96 | 0.0 | 0.9 | 0.00 | 0.01 | 0.01 | 72 | 1009.7 |
| 20260507223906 | 56 | 61 | 0.0 | 0.9 | 0.00 | 0.01 | 0.01 | 72 | 1009.3 |
| 20260507223402 | 55 | 92 | 0.0 | 0.9 | 0.00 | 0.01 | 0.01 | 71 | 1009.6 |
| 20260507222859 | 56 | 73 | 0.9 | 0.9 | 0.00 | 0.01 | 0.01 | 70 | 1009.7 |
| 20260507222356 | 56 | 110 | 0.0 | 0.9 | 0.00 | 0.01 | 0.01 | 70 | 1009.6 |
| 20260507221853 | 56 | 91 | 0.0 | 0.0 | 0.00 | 0.01 | 0.01 | 70 | 1009.4 |
| 20260507221349 | 55 | 85 | 0.0 | 0.0 | 0.00 | 0.01 | 0.01 | 71 | 1009.6 |
| 20260507220845 | 56 | 81 | 0.0 | 0.9 | 0.00 | 0.01 | 0.01 | 69 | 1009.6 |
| 20260507220344 | 56 | 90 | 0.0 | 0.9 | 0.00 | 0.01 | 0.01 | 74 | 1009.8 |
| 20260507215839 | 55 | 97 | 0.0 | 0.9 | 0.00 | 0.01 | 0.01 | 75 | 1009.8 |
| 20260507215337 | 54 | 104 | 0.9 | 1.7 | 0.07 | 0.01 | 0.01 | 78 | 1009.5 |
| 20260507214834 | 53 | 75 | 0.9 | 5.2 | 0.07 | 0.01 | 0.01 | 76 | 1009.8 |
| 20260507214332 | 54 | 64 | 2.6 | 2.6 | 0.00 | 0.00 | 0.00 | 68 | 1009.9 |
| 20260507213826 | 55 | 43 | 1.7 | 5.2 | 0.00 | 0.00 | 0.00 | 60 | 1009.5 |
| 20260507213323 | 57 | 171 | 1.7 | 2.6 | 0.00 | 0.00 | 0.00 | 59 | 1009.5 |
| 20260507212820 | 58 | 117 | 2.6 | 2.6 | 0.00 | 0.00 | 0.00 | 60 | 1009.4 |
| 20260507212316 | 58 | 322 | 2.6 | 4.3 | 0.00 | 0.00 | 0.00 | 57 | 1009.2 |
| 20260507211813 | 59 | 206 | 1.7 | 7.0 | 0.00 | 0.00 | 0.00 | 55 | 1009.1 |
| 20260507211310 | 60 | 145 | 3.5 | 7.0 | 0.00 | 0.00 | 0.00 | 53 | 1009.2 |
| 20260507210806 | 60 | 262 | 2.6 | 5.2 | 0.00 | 0.00 | 0.00 | 51 | 1009.0 |
| 20260507210303 | 60 | 246 | 3.5 | 7.8 | 0.00 | 0.00 | 0.00 | 51 | 1008.9 |
| 20260507205759 | 62 | 38 | 1.7 | 7.8 | 0.00 | 0.00 | 0.00 | 51 | 1009.1 |
| 20260507205257 | 61 | 207 | 2.6 | 6.1 | 0.00 | 0.00 | 0.00 | 51 | 1009.2 |
| 20260507204752 | 62 | 287 | 3.5 | 6.1 | 0.00 | 0.00 | 0.00 | 48 | 1009.3 |
| 20260507204251 | 62 | 211 | 3.5 | 9.6 | 0.00 | 0.00 | 0.00 | 50 | 1009.2 |
| 20260507203748 | 62 | 163 | 2.6 | 7.0 | 0.00 | 0.00 | 0.00 | 50 | 1009.5 |
| 20260507203245 | 62 | 117 | 1.7 | 8.7 | 0.00 | 0.00 | 0.00 | 53 | 1009.4 |
| 20260507202742 | 61 | 183 | 2.6 | 8.7 | 0.00 | 0.00 | 0.00 | 54 | 1009.4 |
| 20260507202238 | 60 | 184 | 3.5 | 9.6 | 0.00 | 0.00 | 0.00 | 54 | 1009.6 |
| 20260507201732 | 60 | 308 | 3.5 | 6.1 | 0.00 | 0.00 | 0.00 | 55 | 1009.7 |
| 20260507201230 | 60 | 189 | 4.3 | 6.1 | 0.00 | 0.00 | 0.00 | 56 | 1009.7 |
| 20260507200726 | 60 | 266 | 3.5 | 12.2 | 0.00 | 0.00 | 0.00 | 53 | 1009.9 |
| 20260507200222 | 60 | 165 | 4.3 | 11.3 | 0.00 | 0.00 | 0.00 | 54 | 1010.0 |
| 20260507195719 | 60 | 121 | 5.2 | 7.8 | 0.00 | 0.00 | 0.00 | 54 | 1009.8 |
| 20260507195216 | 59 | 156 | 3.5 | 7.8 | 0.00 | 0.00 | 0.00 | 57 | 1010.0 |
| 20260507194713 | 59 | 186 | 4.3 | 7.0 | 0.00 | 0.00 | 0.00 | 55 | 1010.1 |
| 20260507194209 | 60 | 50 | 1.7 | 5.2 | 0.00 | 0.00 | 0.00 | 57 | 1010.4 |
| 20260507193706 | 60 | 204 | 2.6 | 7.0 | 0.00 | 0.00 | 0.00 | 57 | 1010.6 |
| 20260507193203 | 60 | 167 | 4.3 | 8.7 | 0.00 | 0.00 | 0.00 | 57 | 1010.5 |
| 20260507192658 | 59 | 171 | 3.5 | 8.7 | 0.00 | 0.00 | 0.00 | 56 | 1010.5 |
| 20260507192156 | 59 | 239 | 4.3 | 11.3 | 0.00 | 0.00 | 0.00 | 57 | 1010.8 |
| 20260507191651 | 58 | 178 | 3.5 | 13.0 | 0.00 | 0.00 | 0.00 | 58 | 1010.9 |
| 20260507191148 | 57 | 138 | 7.8 | 12.2 | 0.00 | 0.00 | 0.00 | 59 | 1010.8 |
| 20260507190645 | 57 | 163 | 4.3 | 13.0 | 0.00 | 0.00 | 0.00 | 57 | 1010.7 |
| 20260507190144 | 57 | 93 | 2.6 | 8.7 | 0.00 | 0.00 | 0.00 | 57 | 1011.1 |
| 20260507185642 | 56 | 285 | 5.2 | 12.2 | 0.00 | 0.00 | 0.00 | 57 | 1011.2 |
| 20260507185138 | 57 | 174 | 4.3 | 8.7 | 0.00 | 0.00 | 0.00 | 57 | 1011.2 |
| 20260507184636 | 59 | 139 | 1.7 | 11.3 | 0.00 | 0.00 | 0.00 | 56 | 1011.1 |
| 20260507184134 | 57 | 323 | 5.2 | 12.2 | 0.00 | 0.00 | 0.00 | 54 | 1011.1 |
| 20260507183630 | 59 | 236 | 4.3 | 11.3 | 0.00 | 0.00 | 0.00 | 51 | 1011.1 |
| 20260507183127 | 59 | 88 | 2.6 | 7.8 | 0.00 | 0.00 | 0.00 | 49 | 1011.3 |
| 20260507182624 | 59 | 247 | 5.2 | 11.3 | 0.00 | 0.00 | 0.00 | 48 | 1011.2 |
| 20260507182120 | 60 | 264 | 4.3 | 9.6 | 0.00 | 0.00 | 0.00 | 46 | 1011.2 |
| 20260507181616 | 59 | 269 | 2.6 | 7.0 | 0.00 | 0.00 | 0.00 | 46 | 1011.4 |
| 20260507181113 | 59 | 265 | 5.2 | 9.6 | 0.00 | 0.00 | 0.00 | 45 | 1011.3 |
| 20260507180609 | 59 | 162 | 1.7 | 7.8 | 0.00 | 0.00 | 0.00 | 48 | 1011.3 |
| 20260507180107 | 59 | 255 | 5.2 | 7.8 | 0.00 | 0.00 | 0.00 | 46 | 1011.3 |
| 20260507175602 | 59 | 263 | 2.6 | 7.8 | 0.00 | 0.00 | 0.00 | 48 | 1011.4 |
| 20260507175100 | 59 | 257 | 2.6 | 12.2 | 0.00 | 0.00 | 0.00 | 45 | 1011.6 |
| 20260507174557 | 60 | 264 | 6.1 | 9.6 | 0.00 | 0.00 | 0.00 | 41 | 1011.4 |
| 20260507174055 | 59 | 141 | 5.2 | 7.8 | 0.00 | 0.00 | 0.00 | 43 | 1011.8 |
| 20260507173552 | 60 | 245 | 4.3 | 7.8 | 0.00 | 0.00 | 0.00 | 43 | 1011.5 |
| 20260507173049 | 61 | 143 | 4.3 | 7.8 | 0.00 | 0.00 | 0.00 | 41 | 1011.8 |
| 20260507172544 | 60 | 176 | 2.6 | 5.2 | 0.00 | 0.00 | 0.00 | 43 | 1011.6 |
| 20260507172042 | 59 | 307 | 2.6 | 9.6 | 0.00 | 0.00 | 0.00 | 43 | 1012.1 |
| 20260507171537 | 59 | 111 | 1.7 | 2.6 | 0.00 | 0.00 | 0.00 | 46 | 1012.4 |
| 20260507171034 | 58 | 219 | 2.6 | 4.3 | 0.00 | 0.00 | 0.00 | 44 | 1012.3 |
| 20260507170531 | 58 | 223 | 2.6 | 5.2 | 0.00 | 0.00 | 0.00 | 45 | 1012.8 |
| 20260507170028 | 58 | 233 | 3.5 | 7.8 | 0.00 | 0.00 | 0.00 | 44 | 1012.5 |
| 20260507165524 | 58 | 291 | 3.5 | 5.2 | 0.00 | 0.00 | 0.00 | 44 | 1012.7 |
| 20260507165020 | 57 | 129 | 1.7 | 5.2 | 0.00 | 0.00 | 0.00 | 45 | 1012.7 |
| 20260507164517 | 57 | 182 | 1.7 | 6.1 | 0.00 | 0.00 | 0.00 | 46 | 1012.5 |
| 20260507164014 | 56 | 283 | 2.6 | 7.0 | 0.00 | 0.00 | 0.00 | 45 | 1012.7 |
| 20260507163511 | 58 | 166 | 3.5 | 5.2 | 0.00 | 0.00 | 0.00 | 44 | 1012.9 |
| 20260507163009 | 58 | 100 | 0.9 | 1.7 | 0.00 | 0.00 | 0.00 | 45 | 1012.9 |
| 20260507162503 | 58 | 321 | 2.6 | 5.2 | 0.00 | 0.00 | 0.00 | 43 | 1012.8 |
| 20260507162001 | 57 | 260 | 2.6 | 2.6 | 0.00 | 0.00 | 0.00 | 43 | 1013.1 |
| 20260507161456 | 57 | 197 | 2.6 | 6.1 | 0.00 | 0.00 | 0.00 | 42 | 1013.4 |
| 20260507160954 | 57 | 162 | 3.5 | 5.2 | 0.00 | 0.00 | 0.00 | 44 | 1013.5 |
| 20260507160449 | 56 | 126 | 2.6 | 7.8 | 0.00 | 0.00 | 0.00 | 44 | 1013.4 |
| 20260507155945 | 56 | 160 | 3.5 | 7.0 | 0.00 | 0.00 | 0.00 | 41 | 1013.5 |
| 20260507155442 | 56 | 191 | 2.6 | 4.3 | 0.00 | 0.00 | 0.00 | 44 | 1013.3 |
| 20260507154939 | 56 | 95 | 0.9 | 4.3 | 0.00 | 0.00 | 0.00 | 44 | 1013.7 |
| 20260507154435 | 56 | 261 | 2.6 | 7.8 | 0.00 | 0.00 | 0.00 | 44 | 1013.5 |
| 20260507153933 | 55 | 186 | 0.9 | 2.6 | 0.00 | 0.00 | 0.00 | 45 | 1013.4 |
| 20260507153429 | 55 | 207 | 3.5 | 4.3 | 0.00 | 0.00 | 0.00 | 47 | 1013.7 |
| 20260507152925 | 55 | 156 | 0.9 | 2.6 | 0.00 | 0.00 | 0.00 | 42 | 1013.8 |
| 20260507152422 | 54 | 103 | 0.0 | 2.6 | 0.00 | 0.00 | 0.00 | 45 | 1013.8 |
| 20260507151918 | 56 | 236 | 2.6 | 4.3 | 0.00 | 0.00 | 0.00 | 44 | 1014.0 |
| 20260507151415 | 55 | 100 | 0.0 | 2.6 | 0.00 | 0.00 | 0.00 | 44 | 1013.9 |
| 20260507150912 | 54 | 206 | 0.9 | 2.6 | 0.00 | 0.00 | 0.00 | 48 | 1014.1 |
| 20260507150408 | 54 | 112 | 0.9 | 1.7 | 0.00 | 0.00 | 0.00 | 49 | 1014.2 |
| 20260507145905 | 53 | 182 | 0.9 | 1.7 | 0.00 | 0.00 | 0.00 | 47 | 1014.2 |
| 20260507145401 | 52 | 26 | 0.9 | 2.6 | 0.00 | 0.00 | 0.00 | 46 | 1014.2 |
| 20260507144858 | 53 | 152 | 3.5 | 5.2 | 0.00 | 0.00 | 0.00 | 48 | 1014.5 |
| 20260507144355 | 52 | 114 | 1.7 | 2.6 | 0.00 | 0.00 | 0.00 | 49 | 1014.5 |
| 20260507143852 | 52 | 134 | 0.9 | 2.6 | 0.00 | 0.00 | 0.00 | 49 | 1014.5 |
| 20260507143349 | 52 | 204 | 2.6 | 5.2 | 0.00 | 0.00 | 0.00 | 51 | 1014.7 |
| 20260507142845 | 52 | 263 | 1.7 | 2.6 | 0.00 | 0.00 | 0.00 | 51 | 1014.8 |
| 20260507142341 | 51 | 225 | 1.7 | 2.6 | 0.00 | 0.00 | 0.00 | 52 | 1014.6 |
| 20260507141838 | 51 | 171 | 2.6 | 5.2 | 0.00 | 0.00 | 0.00 | 51 | 1014.7 |
| 20260507141335 | 51 | 147 | 3.5 | 5.2 | 0.00 | 0.00 | 0.00 | 50 | 1015.0 |
| 20260507140831 | 50 | 165 | 1.7 | 2.6 | 0.00 | 0.00 | 0.00 | 54 | 1014.9 |
| 20260507140328 | 50 | 186 | 1.7 | 2.6 | 0.00 | 0.00 | 0.00 | 52 | 1014.6 |
| 20260507135826 | 50 | 100 | 1.7 | 2.6 | 0.00 | 0.00 | 0.00 | 52 | 1014.8 |
| 20260507135323 | 48 | 163 | 2.6 | 5.2 | 0.00 | 0.00 | 0.00 | 53 | 1014.7 |
| 20260507134820 | 48 | 173 | 0.9 | 2.6 | 0.00 | 0.00 | 0.00 | 54 | 1014.8 |
| 20260507134316 | 47 | 98 | 0.0 | 0.9 | 0.00 | 0.00 | 0.00 | 57 | 1014.8 |
| 20260507133812 | 47 | 156 | 1.7 | 2.6 | 0.00 | 0.00 | 0.00 | 55 | 1015.1 |
| 20260507133308 | 47 | 174 | 2.6 | 4.3 | 0.00 | 0.00 | 0.00 | 55 | 1014.8 |
| 20260507132806 | 47 | 110 | 0.9 | 4.3 | 0.00 | 0.00 | 0.00 | 60 | 1014.9 |
| 20260507132306 | 46 | 142 | 0.9 | 1.7 | 0.00 | 0.00 | 0.00 | 59 | 1014.9 |
| 20260507131800 | 45 | 79 | 0.9 | 1.7 | 0.00 | 0.00 | 0.00 | 66 | 1014.8 |
| 20260507131256 | 45 | 95 | 0.9 | 0.9 | 0.00 | 0.00 | 0.00 | 70 | 1014.9 |
| 20260507130753 | 44 | 115 | 0.0 | 0.9 | 0.00 | 0.00 | 0.00 | 70 | 1014.9 |
| 20260507130251 | 43 | 190 | 0.9 | 1.7 | 0.00 | 0.00 | 0.00 | 72 | 1015.2 |
| 20260507125749 | 43 | 88 | 0.0 | 0.9 | 0.00 | 0.00 | 0.00 | 73 | 1015.2 |
| 20260507125247 | 42 | 46 | 0.9 | 1.7 | 0.00 | 0.00 | 0.00 | 73 | 1015.1 |
| 20260507124743 | 41 | 117 | 0.0 | 0.9 | 0.00 | 0.00 | 0.00 | 71 | 1015.0 |
| 20260507124240 | 41 | 101 | 0.0 | 0.0 | 0.00 | 0.00 | 0.00 | 74 | 1015.3 |
| 20260507123739 | 40 | 107 | 0.0 | 0.0 | 0.00 | 0.00 | 0.00 | 75 | 1015.1 |
| 20260507123236 | 40 | 147 | 0.0 | 0.0 | 0.00 | 0.00 | 0.00 | 77 | 1015.1 |
| 20260507122731 | 39 | 81 | 0.0 | 0.0 | 0.00 | 0.00 | 0.00 | 78 | 1015.2 |
| 20260507122227 | 39 | 98 | 0.0 | 0.0 | 0.00 | 0.00 | 0.00 | 79 | 1015.0 |
| 20260507121723 | 38 | 107 | 0.0 | 0.0 | 0.00 | 0.00 | 0.00 | 80 | 1014.6 |
| 20260507121219 | 37 | 102 | 0.0 | 0.0 | 0.00 | 0.00 | 0.00 | 83 | 1014.8 |
| 20260507120715 | 36 | 89 | 0.0 | 0.0 | 0.00 | 0.00 | 0.00 | 87 | 1014.7 |
| 20260507120212 | 36 | 97 | 0.0 | 0.0 | 0.00 | 0.00 | 0.00 | 89 | 1014.7 |
| 20260507115708 | 36 | 96 | 0.0 | 0.0 | 0.00 | 0.00 | 0.00 | 89 | 1014.6 |
| 20260507115204 | 36 | 95 | 0.0 | 0.0 | 0.00 | 0.00 | 0.00 | 89 | 1014.6 |
| 20260507114700 | 36 | 98 | 0.0 | 0.0 | 0.00 | 0.00 | 0.00 | 90 | 1014.9 |
| 20260507114157 | 35 | 97 | 0.0 | 0.0 | 0.00 | 0.00 | 0.00 | 92 | 1014.6 |
| 20260507113655 | 34 | 98 | 0.0 | 0.0 | 0.00 | 0.00 | 0.00 | 93 | 1014.8 |
| 20260507113151 | 33 | 97 | 0.0 | 0.0 | 0.00 | 0.00 | 0.00 | 95 | 1014.7 |
| 20260507112649 | 32 | 99 | 0.0 | 0.0 | 0.00 | 0.00 | 0.00 | 95 | 1014.7 |
| 20260507112145 | 32 | 97 | 0.0 | 0.0 | 0.00 | 0.00 | 0.00 | 95 | 1014.8 |
| 20260507111643 | 32 | 97 | 0.0 | 0.0 | 0.00 | 0.00 | 0.00 | 95 | 1014.6 |
| 20260507111139 | 32 | 97 | 0.0 | 0.0 | 0.00 | 0.00 | 0.00 | 94 | 1014.6 |
| 20260507110636 | 32 | 97 | 0.0 | 0.0 | 0.00 | 0.00 | 0.00 | 94 | 1014.8 |
| 20260507110133 | 32 | 98 | 0.0 | 0.0 | 0.00 | 0.00 | 0.00 | 94 | 1014.7 |
| 20260507105630 | 32 | 98 | 0.0 | 0.0 | 0.00 | 0.00 | 0.00 | 94 | 1014.6 |
| 20260507105125 | 32 | 99 | 0.0 | 0.0 | 0.00 | 0.00 | 0.00 | 94 | 1014.7 |
| 20260507104623 | 32 | 99 | 0.0 | 0.0 | 0.00 | 0.00 | 0.00 | 93 | 1014.7 |
| 20260507104119 | 32 | 99 | 0.0 | 0.0 | 0.00 | 0.00 | 0.00 | 93 | 1014.7 |
| 20260507103615 | 32 | 99 | 0.0 | 0.0 | 0.00 | 0.00 | 0.00 | 94 | 1014.5 |
| 20260507103112 | 32 | 97 | 0.0 | 0.0 | 0.00 | 0.00 | 0.00 | 94 | 1014.8 |
| 20260507102609 | 32 | 96 | 0.0 | 0.0 | 0.00 | 0.00 | 0.00 | 94 | 1014.7 |
| 20260507102105 | 32 | 93 | 0.0 | 0.0 | 0.00 | 0.00 | 0.00 | 94 | 1014.6 |
| 20260507101601 | 32 | 91 | 0.0 | 0.0 | 0.00 | 0.00 | 0.00 | 94 | 1014.8 |
| 20260507101057 | 32 | 97 | 0.0 | 0.0 | 0.00 | 0.00 | 0.00 | 94 | 1014.8 |
| 20260507100554 | 32 | 99 | 0.0 | 0.0 | 0.00 | 0.00 | 0.00 | 94 | 1014.6 |
| 20260507100053 | 32 | 97 | 0.0 | 0.0 | 0.00 | 0.00 | 0.00 | 94 | 1014.5 |
| 20260507095550 | 32 | 97 | 0.0 | 0.0 | 0.00 | 0.00 | 0.00 | 94 | 1014.7 |
| 20260507095047 | 31 | 97 | 0.0 | 0.0 | 0.00 | 0.00 | 0.00 | 94 | 1014.4 |
| 20260507094543 | 31 | 99 | 0.0 | 0.0 | 0.00 | 0.00 | 0.00 | 94 | 1014.9 |
| 20260507094040 | 32 | 100 | 0.0 | 0.0 | 0.00 | 0.00 | 0.00 | 94 | 1014.8 |
| 20260507093537 | 32 | 102 | 0.0 | 0.0 | 0.00 | 0.00 | 0.00 | 94 | 1014.8 |
| 20260507093036 | 32 | 99 | 0.0 | 0.0 | 0.00 | 0.00 | 0.00 | 94 | 1014.7 |
| 20260507092532 | 32 | 99 | 0.0 | 0.0 | 0.00 | 0.00 | 0.00 | 94 | 1014.7 |
| 20260507092029 | 32 | 99 | 0.0 | 0.0 | 0.00 | 0.00 | 0.00 | 94 | 1014.8 |
| 20260507091526 | 32 | 102 | 0.0 | 0.0 | 0.00 | 0.00 | 0.00 | 94 | 1014.6 |
| 20260507091022 | 32 | 102 | 0.0 | 0.0 | 0.00 | 0.00 | 0.00 | 94 | 1014.6 |
| 20260507090517 | 32 | 100 | 0.0 | 0.0 | 0.00 | 0.00 | 0.00 | 94 | 1014.8 |
| 20260507090015 | 32 | 98 | 0.0 | 0.0 | 0.00 | 0.00 | 0.00 | 94 | 1014.8 |
| 20260507085512 | 32 | 101 | 0.0 | 0.0 | 0.00 | 0.00 | 0.00 | 94 | 1014.9 |
| 20260507085008 | 32 | 101 | 0.0 | 0.0 | 0.00 | 0.00 | 0.00 | 94 | 1014.8 |
| 20260507084505 | 33 | 100 | 0.0 | 0.0 | 0.00 | 0.00 | 0.00 | 94 | 1014.9 |
| 20260507084002 | 33 | 99 | 0.0 | 0.0 | 0.00 | 0.00 | 0.00 | 94 | 1014.6 |
| 20260507083458 | 33 | 99 | 0.0 | 0.0 | 0.00 | 0.00 | 0.00 | 94 | 1014.7 |
| 20260507082955 | 33 | 99 | 0.0 | 0.0 | 0.00 | 0.00 | 0.00 | 94 | 1014.6 |
| 20260507082451 | 33 | 97 | 0.0 | 0.0 | 0.00 | 0.00 | 0.00 | 94 | 1014.6 |
| 20260507081948 | 33 | 97 | 0.0 | 0.0 | 0.00 | 0.00 | 0.00 | 94 | 1014.7 |
| 20260507081444 | 33 | 98 | 0.0 | 0.0 | 0.00 | 0.00 | 0.00 | 94 | 1014.6 |
| 20260507080941 | 33 | 97 | 0.0 | 0.0 | 0.00 | 0.00 | 0.00 | 94 | 1014.6 |
| 20260507080437 | 33 | 95 | 0.0 | 0.0 | 0.00 | 0.00 | 0.00 | 94 | 1014.7 |
| 20260507075932 | 33 | 95 | 0.0 | 0.0 | 0.00 | 0.00 | 0.00 | 94 | 1014.7 |
| 20260507075429 | 33 | 95 | 0.0 | 0.0 | 0.00 | 0.00 | 0.00 | 94 | 1014.7 |
| 20260507074926 | 33 | 97 | 0.0 | 0.0 | 0.00 | 0.00 | 0.00 | 93 | 1014.8 |
| 20260507074422 | 33 | 97 | 0.0 | 0.0 | 0.00 | 0.00 | 0.00 | 93 | 1014.8 |
| 20260507073920 | 33 | 98 | 0.0 | 0.0 | 0.00 | 0.00 | 0.00 | 93 | 1014.7 |
| 20260507073416 | 33 | 98 | 0.0 | 0.0 | 0.00 | 0.00 | 0.00 | 94 | 1014.7 |
| 20260507072913 | 33 | 97 | 0.0 | 0.0 | 0.00 | 0.00 | 0.00 | 94 | 1015.0 |
| 20260507072411 | 33 | 97 | 0.0 | 0.0 | 0.00 | 0.00 | 0.00 | 94 | 1014.8 |
| 20260507071908 | 33 | 97 | 0.0 | 0.0 | 0.00 | 0.00 | 0.00 | 93 | 1014.8 |
| 20260507071405 | 33 | 97 | 0.0 | 0.0 | 0.00 | 0.00 | 0.00 | 93 | 1014.9 |
| 20260507070901 | 33 | 97 | 0.0 | 0.0 | 0.00 | 0.00 | 0.00 | 93 | 1014.9 |
| 20260507070359 | 34 | 98 | 0.0 | 0.0 | 0.00 | 0.00 | 0.00 | 93 | 1015.0 |
| 20260507065856 | 34 | 100 | 0.0 | 0.0 | 0.00 | 0.00 | 0.00 | 93 | 1015.1 |
| 20260507065352 | 34 | 101 | 0.0 | 0.0 | 0.00 | 0.00 | 0.00 | 93 | 1015.4 |
| 20260507064849 | 34 | 99 | 0.0 | 0.0 | 0.00 | 0.00 | 0.00 | 92 | 1015.2 |
| 20260507064348 | 34 | 99 | 0.0 | 0.0 | 0.00 | 0.00 | 0.00 | 92 | 1015.0 |
| 20260507063845 | 34 | 99 | 0.0 | 0.0 | 0.00 | 0.00 | 0.00 | 91 | 1014.9 |
| 20260507063342 | 34 | 99 | 0.0 | 0.0 | 0.00 | 0.00 | 0.00 | 91 | 1015.2 |
| 20260507062839 | 34 | 98 | 0.0 | 0.0 | 0.00 | 0.00 | 0.00 | 91 | 1014.8 |
| 20260507062336 | 34 | 97 | 0.0 | 0.0 | 0.00 | 0.00 | 0.00 | 90 | 1015.1 |
| 20260507061834 | 34 | 98 | 0.0 | 0.0 | 0.00 | 0.00 | 0.00 | 90 | 1015.2 |
| 20260507061331 | 34 | 98 | 0.0 | 0.0 | 0.00 | 0.00 | 0.00 | 89 | 1015.3 |
| 20260507060830 | 35 | 98 | 0.0 | 0.0 | 0.00 | 0.00 | 0.00 | 89 | 1015.2 |
| 20260507060326 | 35 | 98 | 0.0 | 0.0 | 0.00 | 0.00 | 0.00 | 89 | 1015.2 |
| 20260507055823 | 35 | 97 | 0.0 | 0.0 | 0.00 | 0.00 | 0.00 | 88 | 1015.1 |
| 20260507055318 | 35 | 97 | 0.0 | 0.0 | 0.00 | 0.00 | 0.00 | 87 | 1015.2 |
| 20260507054815 | 35 | 98 | 0.0 | 0.0 | 0.00 | 0.00 | 0.00 | 86 | 1015.3 |
| 20260507054311 | 35 | 100 | 0.0 | 0.0 | 0.00 | 0.00 | 0.00 | 87 | 1015.5 |
| 20260507053808 | 35 | 100 | 0.0 | 0.0 | 0.00 | 0.00 | 0.00 | 86 | 1015.2 |
| 20260507053306 | 35 | 99 | 0.0 | 0.0 | 0.00 | 0.00 | 0.00 | 85 | 1015.1 |
| 20260507052805 | 35 | 99 | 0.0 | 0.0 | 0.00 | 0.00 | 0.00 | 85 | 1015.2 |
| 20260507052301 | 35 | 100 | 0.0 | 0.0 | 0.00 | 0.00 | 0.00 | 85 | 1015.1 |
| 20260507051759 | 36 | 100 | 0.0 | 0.0 | 0.00 | 0.00 | 0.00 | 85 | 1015.1 |
| 20260507051256 | 36 | 100 | 0.0 | 0.0 | 0.00 | 0.00 | 0.00 | 85 | 1015.0 |
| 20260507050753 | 36 | 102 | 0.0 | 0.0 | 0.00 | 0.00 | 0.00 | 85 | 1015.3 |
| 20260507050249 | 37 | 102 | 0.0 | 0.0 | 0.00 | 0.00 | 0.00 | 85 | 1015.4 |
| 20260507045746 | 37 | 99 | 0.0 | 0.0 | 0.00 | 0.00 | 0.00 | 85 | 1015.2 |
| 20260507045242 | 37 | 97 | 0.0 | 0.0 | 0.00 | 0.00 | 0.00 | 85 | 1015.1 |
| 20260507044740 | 37 | 97 | 0.0 | 0.0 | 0.00 | 0.00 | 0.00 | 84 | 1015.2 |
| 20260507044236 | 37 | 98 | 0.0 | 0.0 | 0.00 | 0.00 | 0.00 | 83 | 1015.1 |
| 20260507043732 | 37 | 97 | 0.0 | 0.0 | 0.00 | 0.00 | 0.00 | 84 | 1015.2 |
| 20260507043229 | 37 | 97 | 0.0 | 0.0 | 0.00 | 0.00 | 0.00 | 83 | 1015.1 |
| 20260507042725 | 37 | 97 | 0.0 | 0.0 | 0.00 | 0.00 | 0.00 | 80 | 1014.9 |
| 20260507042220 | 37 | 99 | 0.0 | 0.0 | 0.00 | 0.00 | 0.00 | 79 | 1015.1 |
| 20260507041718 | 37 | 99 | 0.0 | 0.0 | 0.00 | 0.00 | 0.00 | 78 | 1015.1 |
| 20260507041215 | 37 | 99 | 0.0 | 0.0 | 0.00 | 0.00 | 0.00 | 77 | 1015.3 |
| 20260507040712 | 38 | 99 | 0.0 | 0.0 | 0.00 | 0.00 | 0.00 | 75 | 1015.0 |
| 20260507040207 | 39 | 99 | 0.0 | 0.0 | 0.00 | 0.00 | 0.00 | 74 | 1015.3 |
| 20260507035704 | 39 | 99 | 0.0 | 0.0 | 0.00 | 0.00 | 0.00 | 73 | 1015.2 |
| 20260507035159 | 39 | 101 | 0.0 | 0.0 | 0.00 | 0.00 | 0.00 | 71 | 1015.2 |
| 20260507034656 | 39 | 100 | 0.0 | 0.0 | 0.00 | 0.00 | 0.00 | 71 | 1015.1 |
| 20260507034154 | 39 | 100 | 0.0 | 0.0 | 0.00 | 0.00 | 0.00 | 71 | 1015.1 |
| 20260507033652 | 40 | 100 | 0.0 | 0.0 | 0.00 | 0.00 | 0.00 | 70 | 1014.9 |
| 20260507033149 | 40 | 99 | 0.0 | 0.0 | 0.00 | 0.00 | 0.00 | 69 | 1015.2 |
| 20260507032647 | 40 | 99 | 0.0 | 0.0 | 0.00 | 0.00 | 0.00 | 70 | 1015.3 |
| 20260507032142 | 40 | 96 | 0.0 | 0.0 | 0.00 | 0.00 | 0.00 | 69 | 1015.3 |
| 20260507031639 | 40 | 99 | 0.0 | 0.0 | 0.00 | 0.00 | 0.00 | 68 | 1015.3 |
| 20260507031136 | 40 | 99 | 0.0 | 0.0 | 0.00 | 0.00 | 0.00 | 68 | 1015.2 |
| 20260507030633 | 41 | 99 | 0.0 | 0.0 | 0.00 | 0.00 | 0.00 | 67 | 1015.2 |
| 20260507030131 | 41 | 99 | 0.0 | 0.0 | 0.00 | 0.00 | 0.00 | 66 | 1015.2 |
| 20260507025627 | 41 | 99 | 0.0 | 0.0 | 0.00 | 0.00 | 0.00 | 65 | 1015.0 |
| 20260507025124 | 41 | 99 | 0.0 | 0.0 | 0.00 | 0.00 | 0.00 | 65 | 1015.2 |
| 20260507024622 | 42 | 99 | 0.0 | 0.0 | 0.00 | 0.00 | 0.00 | 65 | 1014.9 |
| 20260507024119 | 42 | 105 | 0.0 | 0.0 | 0.00 | 0.00 | 0.00 | 65 | 1015.1 |
| 20260507023615 | 42 | 105 | 0.0 | 0.0 | 0.00 | 0.00 | 0.00 | 64 | 1014.9 |
| 20260507023112 | 42 | 99 | 0.0 | 0.0 | 0.00 | 0.00 | 0.00 | 64 | 1014.9 |
| 20260507022609 | 42 | 111 | 0.0 | 0.0 | 0.00 | 0.00 | 0.00 | 65 | 1014.9 |
| 20260507022105 | 42 | 95 | 0.0 | 0.0 | 0.00 | 0.00 | 0.00 | 64 | 1015.0 |
| 20260507021601 | 42 | 95 | 0.0 | 0.0 | 0.00 | 0.00 | 0.00 | 64 | 1014.6 |
| 20260507021057 | 43 | 93 | 0.0 | 0.0 | 0.00 | 0.00 | 0.00 | 64 | 1014.7 |
| 20260507020556 | 44 | 89 | 0.0 | 0.0 | 0.00 | 0.00 | 0.00 | 64 | 1014.6 |
| 20260507020051 | 44 | 98 | 0.0 | 0.0 | 0.00 | 0.00 | 0.00 | 62 | 1014.4 |
| 20260507015550 | 45 | 90 | 0.0 | 0.0 | 0.00 | 0.00 | 0.00 | 60 | 1014.6 |
| 20260507015047 | 45 | 84 | 0.0 | 0.9 | 0.00 | 0.00 | 0.00 | 59 | 1014.4 |
| 20260507014543 | 46 | 70 | 0.0 | 0.9 | 0.00 | 0.00 | 0.00 | 57 | 1014.3 |
| 20260507014039 | 46 | 66 | 0.9 | 0.9 | 0.00 | 0.00 | 0.00 | 55 | 1014.4 |
| 20260507013536 | 46 | 84 | 0.9 | 0.9 | 0.00 | 0.00 | 0.00 | 55 | 1014.4 |
| 20260507013034 | 47 | 108 | 0.0 | 1.7 | 0.00 | 0.00 | 0.00 | 53 | 1014.4 |
| 20260507012531 | 47 | 50 | 1.7 | 1.7 | 0.00 | 0.00 | 0.00 | 55 | 1014.3 |
| 20260507012026 | 47 | 69 | 1.7 | 2.6 | 0.00 | 0.00 | 0.00 | 53 | 1014.1 |
| 20260507011524 | 47 | 338 | 2.6 | 4.3 | 0.00 | 0.00 | 0.00 | 52 | 1014.4 |
| 20260507011020 | 47 | 154 | 0.9 | 2.6 | 0.00 | 0.00 | 0.00 | 53 | 1014.6 |
| 20260507010515 | 48 | 115 | 1.7 | 2.6 | 0.00 | 0.00 | 0.00 | 53 | 1014.4 |
| 20260507010012 | 48 | 69 | 1.7 | 2.6 | 0.00 | 0.00 | 0.00 | 52 | 1014.3 |
| 20260507005509 | 48 | 242 | 2.6 | 5.2 | 0.00 | 0.00 | 0.00 | 52 | 1014.1 |
| 20260507005005 | 48 | 63 | 2.6 | 4.3 | 0.00 | 0.00 | 0.00 | 51 | 1014.3 |
| 20260507004502 | 48 | 296 | 0.9 | 1.7 | 0.00 | 0.00 | 0.00 | 52 | 1014.2 |
| 20260507004000 | 49 | 112 | 0.9 | 1.7 | 0.00 | 0.00 | 0.00 | 51 | 1014.1 |
| 20260507003455 | 49 | 359 | 2.6 | 5.2 | 0.00 | 0.00 | 0.00 | 48 | 1014.1 |
| 20260507002950 | 49 | 258 | 3.5 | 4.3 | 0.00 | 0.00 | 0.00 | 50 | 1014.1 |
| 20260507002447 | 50 | 334 | 4.3 | 6.1 | 0.00 | 0.00 | 0.00 | 47 | 1014.0 |
| 20260507001944 | 50 | 314 | 2.6 | 5.2 | 0.00 | 0.00 | 0.00 | 48 | 1014.2 |
| 20260507001440 | 50 | 81 | 2.6 | 8.7 | 0.00 | 0.00 | 0.00 | 48 | 1013.9 |
| 20260507000938 | 50 | 0 | 3.5 | 6.1 | 0.00 | 0.00 | 0.00 | 48 | 1013.9 |
| 20260507000435 | 50 | 11 | 3.5 | 6.1 | 0.00 | 0.00 | 0.00 | 48 | 1013.8 |